Terug naar catalogus

HULIANWANG DIGUI-87

ActiefCommunicatieLEO
NORAD 65995·PAYLOAD·🇨🇳 China

Gelanceerd Oct 16, 2025 vanaf Wenchang Space Launch Site

Loading…

Volgende Passages (komende 24 uur)

TLE

VersSource: Space-Track

Epoch: Sep 14, 2026, 22:18 UTC

1 65995U 25231A   26257.92928871 -.00000092  00000-0  69899-4 0  9992
2 65995  49.9986 213.9502 0000315  20.4023 339.6862 13.29328003 44829

Volg HULIANWANG DIGUI-87 in realtime met AllMySat

Download on the App Store